IUS R/B(2), 25869

Orbit data source: Space-Track

IUS R/B(2), 25869 is space debris in HEO originally from a launch on Fri, 23 Jul 1999 UTC launched from the Air Force Eastern Test Range (AFETR). Debris objects in space refer to the collection of defunct objects orbiting the Earth. Examples of debris include non-operational satellites, rocket bodies, and fragments generated from explosions, collisions, or faulty payload assembly.

Loading next visibility...
Identifier
25869, 1999-040D
Orbit
HEO
Country
Flag of USUS
Related business
Manufacturer
PW CSD
Mission
Spacecraft
Bus & Motor
ORBUS 6, ORBUS 6
Mass
1,079 kg wet, 1,079 kg dry
Launch date (UTC)
1999-07-23 (27 years ago)
Launch vehicle
Unknown
Launch site
Air Force Eastern Test Range (AFETR)
Object type
Payload
Rocket body
Debris
Shape & HBR
Cyl, 1.8 m
Radar Cross Section
8.086 m², Large (>1 m²)

Expand to show TLE details & history
Last TLE update: 5 days ago

TLE from 5 days ago
0 IUS R/B(2)
1 25869U 99040D   26261.14212107  .00000047  00000-0  00000-0 0  9998
2 25869  27.2289 155.2830 8335555  76.2835 354.6062  0.97240564 96458
Epoch: 2026-09-18T03:24Z
TLE epoch observation values (Epoch: 2026-09-18T03:24:39.260Z)
Latitude
-0.00013°
Longitude
107.37594°
Altitude
4,552.572 km
Speed
7.979 km/s
True Right ascension
10h 22m 26s
True Declination
0° 00' 00"
Sunlit
Object was in daylight at epoch
Visualization orbit readout
Latitude
Unknown
Longitude
Unknown
Altitude
Unknown
Speed
Unknown
Apparent Right ascension
Unknown
Apparent Declination
Unknown
Sunlit
N/A
Visualization observer readout
Local Sidereal Time
16:01:49
Azimuth
Unknown
Elevation
Unknown
Doppler factor
Unknown
Orbital elements
Apogee altitude
72,539.343 km
Perigee altitude
785.748 km
Semi-major axis
43,040.682 km
Eccentricity
0.83356
Inclination
27.2289°
RAAN
155.283°
Arg. of periapsis
76.2835°
True anomaly
282.27252°
Mean anomaly
354.6062°
Eccentric anomaly
332.70563°
Mean motion
0.24307 °/min
Orbital period
1,481.08 mins
BSTAR
0
Loading maneuver chart data...
Computing Atmospheric mass density...
Loading historical data...
Loading historical data...
Loading historical data...
Loading historical data...
Loading historical data...
Loading historical data...
Loading historical data...

Documentation

Showing up to 5 results
|